Location: T�chigga el Be�da
(16.4766°N, 9.3887°W)
Time: 13:32:22
(UTC+00:00)

CSL-04 Rocket - Pass Details

Date: 27 February 2020
Orbit: 805 x 861 km, 99.0° (Epoch: 30 March)

Event Time Altitude Azimuth Distance (km) Brightness Sun altitude
Rises 19:03:15 0° 148° (SSE) 3,425 6.6 -5.4°
Reaches altitude 10° 19:05:48 10° 141° (SE) 2,488 5.8 -6.0°
Maximum altitude 19:10:51 37° 74° (ENE) 1,293 4.2 -7.2°
Drops below altitude 10° 19:15:52 10° 8° (N) 2,473 6.0 -8.4°
Sets 19:18:22 0° 1° (N) 3,402 6.8 -9.0°
